Home > Weather > Paramus > Past weeks

Flag for U.S.A. Weather for the Past 2 Weeks in Paramus, New Jersey, U.S.A.

Now
38 °F

Overcast.


Feels Like: 31 °F
Forecast: 28 / 35 °F
Wind: 9 mph from Northeast

Location: Teterboro Airport

Current Time: Feb 8, 2016 at 10:03:17 AM

Latest Report: Feb 8, 2016 at 8:51 AM


Visibility: 10 mi

Pressure: 29.77 "Hg

Humidity: 58%

Dew point: 24 °F

Location of ParamusLocation

Historic Weather in Paramus — Graph

°F

Paramus Temperature Yesterday

Maximum temperature yesterday: 47 °F (at 2:51 PM)
Minimum temperature yesterday: 26 °F (at 5:51 AM)
Average temperature yesterday: 37 °F

High & Low Weather Summary for the Past Weeks

 TemperatureHumidityPressure
High58 °F (Feb 3, 7:51 PM)94% (Feb 3, 3:58 PM)30.43 "Hg (Feb 3, 3:58 PM)
Low17 °F (Jan 25, 2:51 AM)32% (Jan 24, 1:51 PM)29.46 "Hg (Jan 29, 11:51 AM)
Average38 °F60%30.02 "Hg
* Reported Jan 24 8:51 AM — Feb 8 8:51 AM, Paramus, Weather by CustomWeather, © 2016

Note: Actual official high and low records may vary slightly from our data, if they occured in-between our weather recording intervals... More about our weather records

Advertising

Paramus Weather History for the Previous 24 Hours

 ConditionsComfort  
Time TempWeatherWind HumidityBarometerVisibility
8:51 AM
Mon, Feb 8
38 °FOvercast.9 mph58%29.77 "Hg10 mi
7:51 AM38 °FOvercast.9 mph60%29.78 "Hg10 mi
6:51 AM38 °FOvercast.9 mph60%29.77 "Hg10 mi
5:51 AM38 °FOvercast.9 mph60%29.76 "Hg10 mi
4:51 AM38 °FOvercast.14 mph63%29.74 "Hg10 mi
3:51 AM37 °FClear.12 mph62%29.75 "Hg10 mi
2:51 AM37 °FClear.9 mph57%29.78 "Hg10 mi
1:51 AM37 °FClear.9 mph52%29.83 "Hg10 mi
12:51 AM39 °FClear.8 mph46%29.86 "Hg10 mi
11:51 PM
Sun, Feb 7
39 °FClear.7 mph48%29.90 "Hg10 mi
10:51 PM39 °FClear.7 mph48%29.93 "Hg10 mi
9:51 PM39 °FClear.3 mph48%29.95 "Hg10 mi
8:51 PM40 °FClear.6 mph47%29.97 "Hg10 mi
7:51 PM40 °FClear.6 mph47%29.99 "Hg10 mi
6:51 PM41 °FClear.6 mph51%30.01 "Hg10 mi
5:51 PM43 °FClear.7 mph42%30.01 "Hg10 mi
4:51 PM44 °FSunny.6 mph37%30.02 "Hg10 mi
3:51 PM46 °FSunny.6 mph35%30.03 "Hg10 mi
2:51 PM47 °FSunny.3 mph33%30.05 "Hg10 mi
1:51 PM46 °FSunny.3 mph34%30.08 "Hg10 mi
12:51 PM45 °FSunny.7 mph38%30.11 "Hg10 mi
11:51 AM44 °FSunny.No wind40%30.12 "Hg10 mi
10:51 AM42 °FSunny.No wind45%30.15 "Hg10 mi
Weather by CustomWeather, © 2016

See weather overviewHow to use our weather pages